FENGYUN 1C DEB

Satellite information

Favourite Embed

Satellite Type and Status

DEBRISIN ORBIT

Key statistics

Satellite FENGYUN 1C DEB at a glance.

Uptime

9668

Days in orbit

Revolutions

≈ 14.1

Per day

Orbit

SSO

Sun Synchronous Orbit

Inclination

98.8

Latest

Satellite identification and parameters

Extended collection of information and parameters for FENGYUN 1C DEB.

Object identification

Identified? True

Debris? True

Object name: FENGYUN 1C DEB

International designator: 1999-025AFZ

Object number (NORAD): 30462

Object ID (CCSDS): 30462

Country: PEOPLES REPUBLIC OF CHINA (PRC)

Current information (Y/N): Y

RCS size: SMALL

Orbital parameters

Period: 102.403 minutes

Inclination: 98.8144 deg

SMA: 7250.529 km

Apoapsis: 974.159 km

Periapsis: 770.63 km

RAAN: 290.3299 deg

Eccentricy: 0.01403548

Argument of periapsis: 19.451 deg

Mean anomaly: 41.0932 deg

Mean motion: 14.06203526 rev/day

Mean motion (dot): 0.0000062 rev/day2

B* drag term: 0.00036869456 1/REarth

Two-line elements (TLE)

Creation date: Oct. 28, 2025, 2:18 a.m.

Reference frame: TEME

Reference center: EARTH

Epoch: Oct. 27, 2025, 9:30 p.m. UTC

TLE line 0: 0 FENGYUN 1C DEB

TLE line 1: 1 30462U 99025AFZ 25300.89645747 .00000620 00000-0 36869-3 0 9993

TLE line 2: 2 30462 98.8144 290.3299 0140355 19.4510 41.0932 14.06203526961490

Live tracking on map

Real-time ground track for satellite FENGYUN 1C DEB.

In-orbit conjunctions

A list of the most updated potential collisions computed for object FENGYUN 1C DEB.

Target Orbit TCA Probability of collision Miss distance Type
SL-18 R/B LEO 2025-06-27 08:51:08 0.0001737426 182.0 (m) ROCKET BODY
CZ-6A DEB LEO 2025-05-07 20:28:38 0.001113692 58.0 (m) DEBRIS
FENGYUN 1C DEB SSO 2024-12-12 21:17:00 0.000165749 233.0 (m) DEBRIS

Associated space launch

Chinese polar orbiting meteorological satellite

FENGYUN 1C DEB was lifted into orbit during the mission ‘Long March 4B | Feng Yun 1C’, on board a Long March 4B space rocket.

The launch took place on May 10, 1999, 1:33 a.m. from Launch Complex 7.

For more information about the launch, click the button.

Launch to space Long March 4B | Feng Yun 1C
Long March 4B | Feng Yun 1C

Agency: N/A

Status: Launch Successful

Launch date: May 10, 1999, 1:33 a.m. UTC

Rocket: Long March 4B

Launch pad: Launch Complex 7

Location: Taiyuan Satellite Launch Center, People's Republic of China

...

Latest news about this satellite

There are no fresh news available about this satellite. Check back as we update our databases every day.


Newsletter sign-up

Weekly statistics, charts and insights to help you stay on top of the space industry.